COSMOS 1660

导读

COSMOS 1660(宇宙1660)是苏联(CIS)于1985年6月14日08:00发射入轨的人造卫星,属于苏联/俄罗斯“宇宙号”系列卫星。“宇宙号”是全球规模最大的卫星家族,多数为军用航天器,也包含科研试验、空间探测等用途的卫星,部分发射失利的深空探测器也会编入该序列。COSMOS 1660继承了该系列多用途特点,是该系列中承担特定航天任务的成员。

基本信息
目录编号:
15821
目录名称:
COSMOS 1660
国际标识:
1985-047A
轨道中心:
EARTH
卫星名称:
COSMOS 1660
卫星全名:
--
卫星状态:
在轨 (已飞行14976 天)
发射日期:
1985-06-14 UTC
国别 :
俄罗斯(独联体) (CIS)
星等 :
--
轨道信息
数据来源 国际轨道数据 AOE轨道数据
星历时间 2026-06-15T03:35:08+0800
11小时前
查看轨道信息
2026-06-15T06:00:00+0800
9小时前
查看轨道信息
半长轴 7881.36km 7881.363km
偏心率 0.0026536 0.0025443
轨道倾角 73.622° 73.623°
近地点辐角 70.597° 75.231°
升交点赤经 188.540° 188.400°
平近点角 102.661° 187.294°
近地点 1482.309km 1483.173km
远地点 1524.137km 1523.279km
周期 116.054分钟 116.054分钟
每日圈数 12.407979 12.407973
详细信息
使用方式:
暂无
2D轨道图
3D轨道图
轨道高度分析图
轨道倾角分析图
轨道综合分析图
查看轨道综合分析图